Flag for U.S.A. Weather past 2 weeks in Raleigh, North Carolina, U.S.A.

Now
81 °F

Scattered clouds.


Feels Like: 86 °F
Forecast: 73 / 92 °F
Wind: 6 mph from Southwest

Location: Raleigh-Durham International Airport

Current Time: Sep 1, 2014 at 10:14:11 AM

Latest Report: Sep 1, 2014 at 9:51 AM


Visibility: 10 mi

Pressure: 30.10 "Hg

Humidity: 77%

Dew point: 73 °F

Location of RaleighLocation

Historic Weather in Raleigh — Graph

°F

Raleigh temperature yesterday

Maximum temperature yesterday: 91 °F (at 3:51 PM)
Minimum temperature yesterday: 74 °F (at 6:51 AM)
Average temperature yesterday: 81 °F

Past Weeks' High & Low Weather Summary

 TemperatureHumidityPressure
High91 °F (Aug 28, 3:51 PM)94% (Aug 18, 9:03 PM)30.22 "Hg (Aug 18, 9:03 PM)
Low59 °F (Aug 27, 4:51 AM)39% (Aug 27, 4:51 PM)29.77 "Hg (Aug 19, 3:51 AM)
Average77 °F75%30.02 "Hg
* Reported Aug 17 8:51 AM — Sep 1 8:51 AM, Raleigh, Weather by CustomWeather, © 2014

Note: Actual official high and low records may vary slightly from our data, if they occured in-between our weather recording intervals... More about our weather records

Advertising

Raleigh weather history for previous 24 hours

 ConditionsComfort  
Time TempWeatherWind HumidityBarometerVisibility
8:51 AM
Sep 1
77 °FBroken clouds.5 mph85%30.10 "Hg10 mi
7:51 AM74 °FBroken clouds.3 mph91%30.10 "Hg10 mi
6:51 AM74 °FPassing clouds.6 mph91%30.09 "Hg10 mi
5:51 AM73 °FPassing clouds.3 mph94%30.08 "Hg10 mi
4:51 AM75 °FPartly cloudy.5 mph88%30.07 "Hg10 mi
3:51 AM75 °FPassing clouds.6 mph88%30.06 "Hg10 mi
2:51 AM77 °FPassing clouds.6 mph82%30.06 "Hg10 mi
1:51 AM78 °FPartly cloudy.7 mph79%30.07 "Hg10 mi
12:51 AM79 °FPartly cloudy.7 mph77%30.08 "Hg10 mi
11:51 PM
Aug 31
80 °FPartly cloudy.7 mph74%30.08 "Hg10 mi
10:51 PM81 °FPartly cloudy.9 mph72%30.08 "Hg10 mi
9:51 PM81 °FPartly cloudy.5 mph69%30.07 "Hg10 mi
8:51 PM81 °FPartly cloudy.No wind69%30.06 "Hg10 mi
7:51 PM82 °FBroken clouds.No wind70%30.06 "Hg10 mi
6:51 PM88 °FScattered clouds.7 mph54%30.05 "Hg10 mi
5:51 PM89 °FScattered clouds.8 mph52%30.04 "Hg10 mi
4:51 PM89 °FScattered clouds.7 mph52%30.05 "Hg10 mi
3:51 PM91 °FScattered clouds.10 mph52%30.07 "Hg10 mi
2:51 PM89 °FScattered clouds.8 mph53%30.10 "Hg10 mi
1:51 PM88 °FScattered clouds.10 mph55%30.12 "Hg10 mi
12:51 PM86 °FBroken clouds.10 mph61%30.13 "Hg10 mi
11:51 AM84 °FBroken clouds.6 mph67%30.14 "Hg10 mi
10:51 AM83 °FBroken clouds.9 mph70%30.15 "Hg10 mi
Weather by CustomWeather, © 2014

See weather overviewHow to use our weather pages